Terminal Aerodrome Forecast
Issued by NWS Sterling, VA

Current Version | Previous Version | Graphics & Text | Print | Product List | Glossary On
Versions: 1 2 3 4 5 6 7 8 9 10 11 12 13
000
FTUS41 KLWX 131700
TAFMRB
TAF
KMRB 131720Z 1318/1418 VRB03KT 3SM BR OVC025
     FM131900 VRB03KT 5SM BR OVC050
     FM140000 32007KT P6SM SCT250
     FM141200 VRB03KT P6SM FEW250=

USA.gov is the U.S. government's official web portal to all federal, state and local government web resources and services.